TimeMDT,TemperatureF,Dew PointF,Humidity,Sea Level PressureIn,VisibilityMPH,Wind Direction,Wind SpeedMPH,Gust SpeedMPH,PrecipitationIn,Events,Conditions,WindDirDegrees,DateUTC
12:56 AM,35.1,14.0,42,29.84,10.0,Variable,3.5,-,N/A,,Partly Cloudy,0,2013-04-30 06:56:00
1:56 AM,32.0,12.9,45,29.86,10.0,Variable,4.6,-,N/A,,Clear,0,2013-04-30 07:56:00
2:56 AM,33.1,10.9,40,29.88,10.0,WSW,6.9,-,N/A,,Overcast,250,2013-04-30 08:56:00
3:56 AM,28.0,12.0,51,29.90,10.0,NW,6.9,-,N/A,,Overcast,310,2013-04-30 09:56:00
4:56 AM,27.0,10.0,49,29.90,10.0,West,8.1,-,N/A,,Scattered Clouds,280,2013-04-30 10:56:00
5:56 AM,25.0,10.9,55,29.92,10.0,NNW,5.8,-,N/A,,Scattered Clouds,340,2013-04-30 11:56:00
6:56 AM,25.0,10.0,53,29.96,10.0,Calm,Calm,-,N/A,,Clear,0,2013-04-30 12:56:00
7:56 AM,33.1,10.0,38,29.96,10.0,Calm,Calm,-,N/A,,Clear,0,2013-04-30 13:56:00
8:56 AM,36.0,10.9,36,29.97,10.0,WNW,8.1,-,N/A,,Clear,300,2013-04-30 14:56:00
9:56 AM,39.0,7.0,27,29.97,10.0,West,9.2,-,N/A,,Clear,280,2013-04-30 15:56:00
10:56 AM,37.0,8.1,30,29.99,10.0,NNW,10.4,-,N/A,,Partly Cloudy,330,2013-04-30 16:56:00
11:56 AM,42.1,3.9,21,29.98,10.0,WNW,6.9,-,N/A,,Clear,300,2013-04-30 17:56:00
12:56 PM,41.0,7.0,25,29.98,10.0,NW,6.9,16.1,N/A,,Partly Cloudy,310,2013-04-30 18:56:00
1:44 PM,41.0,15.8,36,29.93,6.0,NNW,12.7,26.5,N/A,,Haze,330,2013-04-30 19:44:00
1:56 PM,43.0,17.1,35,29.98,10.0,NNE,16.1,23.0,N/A,,Partly Cloudy,20,2013-04-30 19:56:00
2:56 PM,41.0,14.0,33,30.00,10.0,North,18.4,24.2,N/A,,Mostly Cloudy,350,2013-04-30 20:56:00
3:56 PM,39.9,16.0,38,30.04,10.0,North,17.3,-,N/A,,Overcast,360,2013-04-30 21:56:00
4:56 PM,41.0,18.0,40,30.07,10.0,North,19.6,-,N/A,,Overcast,350,2013-04-30 22:56:00
5:56 PM,39.0,17.1,41,30.13,10.0,North,12.7,-,N/A,,Overcast,360,2013-04-30 23:56:00
6:56 PM,37.0,19.9,50,30.17,10.0,South,15.0,25.3,N/A,,Overcast,170,2013-05-01 00:56:00
7:56 PM,34.0,25.0,70,30.18,10.0,South,11.5,-,N/A,,Overcast,170,2013-05-01 01:56:00
8:56 PM,32.0,24.1,73,30.22,10.0,SSW,5.8,-,N/A,,Overcast,200,2013-05-01 02:56:00
9:35 PM,33.8,24.8,70,30.17,10.0,SW,8.1,-,N/A,,Overcast,220,2013-05-01 03:35:00
9:43 PM,32.0,24.8,75,30.17,10.0,South,8.1,-,N/A,,Overcast,190,2013-05-01 03:43:00
9:56 PM,32.0,25.0,75,30.24,10.0,South,6.9,-,N/A,,Overcast,180,2013-05-01 03:56:00
10:15 PM,30.2,26.6,86,30.18,10.0,SSE,12.7,-,N/A,,Overcast,150,2013-05-01 04:15:00
10:31 PM,30.2,26.6,86,30.19,9.0,SSE,10.4,-,N/A,,Overcast,150,2013-05-01 04:31:00
10:40 PM,30.2,26.6,86,30.19,2.5,SSE,9.2,-,0.00,Snow,Light Snow,150,2013-05-01 04:40:00
10:47 PM,30.2,26.6,86,30.19,1.2,SSE,9.2,-,0.00,Snow,Light Snow,150,2013-05-01 04:47:00
10:56 PM,30.0,27.0,88,30.28,1.5,SSE,11.5,-,0.00,Snow,Light Snow,150,2013-05-01 04:56:00
11:17 PM,28.4,26.6,93,30.20,2.0,SE,13.8,-,0.00,Snow,Light Snow,140,2013-05-01 05:17:00
11:22 PM,28.4,26.6,93,30.20,1.2,SSE,15.0,-,0.00,Snow,Light Snow,150,2013-05-01 05:22:00
11:27 PM,28.4,26.6,93,30.21,0.8,SSE,12.7,-,0.00,Snow,Light Snow,150,2013-05-01 05:27:00
11:35 PM,28.4,26.6,93,30.21,0.8,SSE,10.4,-,0.00,Snow,Light Snow,160,2013-05-01 05:35:00
11:42 PM,28.4,26.6,93,30.21,1.5,South,10.4,-,0.00,Snow,Light Snow,170,2013-05-01 05:42:00
11:51 PM,28.4,26.6,93,30.21,2.0,South,9.2,-,0.00,Snow,Light Snow,170,2013-05-01 05:51:00
11:56 PM,28.9,26.1,89,30.28,2.0,South,9.2,-,0.00,Snow,Light Snow,190,2013-05-01 05:56:00